Weather in Tornio

Finland     65°50′58″N   24°09′47″E
temp.,
°C
wind,
m/s
gust,
m/s
humid.,
%
clouds,
%
prec.,
mm/h
press.,
hPa
HPBL,
m
18 may, tue
tue1800:00+6ese588998 0.0 100556
03:00+5se71395100 0.4 1004119
06:00+5s71199100 2.6 1004134
09:00+4sw5899100 2.8 1005115
12:00+4s4598100 0.1 100668
15:00+4s4699100 0.1 1008116
18:00+4sse3499100 0.1 100758
21:00+4sse579971 0.1 100784
19 may, wed
wed1900:00+4s459989 0.0 100796
03:00+2sse4499100 0.1 1008139
06:00+2sse2399100 0.1 1007124
09:00+3sse1198100 0.1 100853
12:00+3nnw0196100 0.0 100770
15:00+5se2296100 0.6 100767
18:00+7nne5899100 2.7 100473
21:00+8n81290100 2.8 1001122
20 may, thu
thu2000:00+7nne91495100 2.7 997152
03:00+7nne91298100 11.6 994140
06:00+6se46100100 6.3 99491
09:00+5se611100100 7.0 994133
12:00+4ese5899100 0.6 994175
15:00+4w6898100 0.9 997131
18:00+4w71192100 0.3 1001233
21:00+5nw71293100 0.6 1002268
21 may, fri
fri2100:00+4nw71193100 0.1 1002256
03:00+4nw6994100 0.4 1002260
06:00+4nw6992100 0.1 1001240
09:00+4nnw6991100 0.3 1001323
12:00+4nw5784100 0.1 1002141
15:00+5nw3579100 0.1 1003107
18:00+5nnw3476100 0.0 1004103
21:00+5nne2278100 0.0 100447
22 may, sat
sat2200:00+4nne2285100 0.0 100511
03:00+3ne3387100 0.0 100623
06:00+3e3389100 0.1 100759
09:00+3ese4593100 0.9 1007157
12:00+4e3492100 1.0 100858
15:00+6e348484 1.0 100761
18:00+5se33896 0.0 100673
21:00+7ne2384100 0.0 100513